Regional Weather Roundup
Issued by NWS

Home | Current Version | Previous Version | Graphics & Text | Print | Product List | Glossary On
Versions: 1 2 3 4 5 6 7 8 9 10 11 12 13 14 15 16 17 18 19 20 21 22 23 24 25 26 27 28 29 30 31 32 33 34 35 36 37 38 39 40 41 42 43 44 45 46 47 48 49 50
708
ASUS43 KLOT 222304
RWRIL

ILLINOIS REGIONAL WEATHER ROUNDUP
NATIONAL WEATHER SERVICE CHICAGO/ROMEOVILLE IL
600 PM CDT TUE MAY 22 2018

NOTE: "FAIR" INDICATES FEW OR NO CLOUDS BELOW 12,000 FEET WITH NO
SIGNIFICANT WEATHER AND/OR OBSTRUCTIONS TO VISIBILITY.

* THESE STATIONS ARE NOT UNDER NWS QUALITY CONTROL. THEY ALSO MAY NOT
  REPORT WEATHER SUCH AS PRECIPITATION OR FOG.

ILZ001-002-007-009-015-016-024-230000-
NORTHWEST ILLINOIS

CITY           SKY/WX    TMP DP  RH WIND       PRES   REMARKS
MOLINE         PTSUNNY   77  61  57 NE6       30.02S
STERLING*      CLOUDY    73  62  68 MISG      30.04
$$

ILZ003-004-008-010-011-017-018-230000-
NORTH CENTRAL ILLINOIS

CITY           SKY/WX    TMP DP  RH WIND       PRES   REMARKS
ROCKFORD       PTSUNNY   70  58  65 N6        30.05F
FREEPORT*      PTSUNNY   68  60  76 N5        30.07R
DE KALB*       PTSUNNY   67  61  81 N7        30.06S
$$

ILZ005-006-012>014-019>023-230000-
NORTHEAST ILLINOIS

CITY           SKY/WX    TMP DP  RH WIND       PRES   REMARKS
CHICAGO-OHARE  CLOUDY    64  55  72 E6        30.04F
CHICAGO-MIDWAY PTSUNNY   61  53  75 E7        30.05S
AURORA         CLOUDY    69  61  75 N9        30.05R
WAUKEGAN       FAIR      56  51  84 SE7       30.05R
DUPAGE AIRPORT CLOUDY    68  60  75 N9        30.04S
WHEELING       FAIR      64  55  72 SE6       30.06F
NORTHERLY ISL    N/A     51  48  89 NE3         N/A
$$

LMZ740>746-230000-
SOUTHERN LAKE MICHIGAN

STATION/POSITION SKY/WX   TEMP    WIND        PRES    VSBY  WAVE
                          AIR SEA DIR/SP/G                  HT/PER
                          (F)     (DEG/KT/KT) (MB)    (MI)  (FT/S)
WILMETTE HARBOR            49 48  120/  2/  4   N/A           1
HARRISON CRIB              50      60/  2/  2   N/A
BURNHAM HARBOR             51      60/  3/  8   N/A
CALUMET HARBOR             51      50/  5/  5 1017.7F
BURNS HARBOR               53      40/  6/  8 1018.3F
MICHIGAN CITY              50      30/  8/  8   N/A
MICHIGAN CITY 6N           50 54   40/  6/  8   N/A           1/ 3
ST. JOSEPH                 51 53   20/  2/  4 1018.5F         1/ 3
$$

ILZ025>027-034>036-040-047-049-050-058-095>099-230000-
WEST-CENTRAL ILLINOIS

CITY           SKY/WX    TMP DP  RH WIND       PRES   REMARKS
QUINCY         SUNNY     82  60  47 NE6       30.00F HX  82
$$

ILZ028>032-037-038-041>044-048-051>054-059>061-230000-
CENTRAL ILLINOIS

CITY           SKY/WX    TMP DP  RH WIND       PRES   REMARKS
BLOOMINGTON    FAIR      77  59  53 N14       30.03F
DECATUR        FAIR      80  57  45 NW12      30.00S HX  80
PEORIA         FAIR      77  59  53 VRB6      30.02S
SPRINGFIELD    FAIR      83  60  45 NW7       30.01F HX  83
TAYLORVILLE    NOT AVBL
$$

ILZ033-039-045-046-055>057-062-063-230000-
EAST-CENTRAL ILLINOIS

CITY           SKY/WX    TMP DP  RH WIND       PRES   REMARKS
CHAMPAIGN      FAIR      82  57  42 N12       30.00S HX  82
DANVILLE*      FAIR      79  59  50 NW9       29.98R HX  80
MATTOON        FAIR      80  62  54 N13       29.98S HX  81
$$

ILZ079-100>102-230000-
SOUTHWEST ILLINOIS

CITY           SKY/WX    TMP DP  RH WIND       PRES   REMARKS
ALTON          MOSUNNY   84  66  54 N6        30.01F HX  86
CAHOKIA*       SUNNY     83  64  52 NE8       30.00S HX  84
$$

ILZ064>066-069>071-074>076-080>082-084>086-088>090-092>094-230000-
SOUTH-CENTRAL ILLINOIS

CITY           SKY/WX    TMP DP  RH WIND       PRES   REMARKS
CARBONDALE     FAIR      84  65  52 NE6       30.00S HX  86
CAIRO*         PTSUNNY   86  68  54 N3        29.98S HX  89
MARION         MOSUNNY   82  63  51 NW9       30.01S HX  83
MT. VERNON       N/A     84  63  49 VRB3      30.00S HX  85
CENTRALIA*     SUNNY     84  66  53 NW9       30.00S HX  86
SALEM*         FAIR      85  62  45 N7        30.00S HX  85
$$

ILZ067-068-072-073-078-083-087-091-230000-
SOUTHEAST ILLINOIS

CITY           SKY/WX    TMP DP  RH WIND       PRES   REMARKS
LAWRENCEVILLE  FAIR      86  62  44 NW10      29.97F HX  86
FLORA*         FAIR      86  62  44 N8        30.00R HX  86
$$

ABBREVIATIONS USED IN REMARKS
   TC - TEMPERATURE IN CELSIUS
  WCI - WIND CHILL INDEX
   HX - HEAT INDEX
  VSB - VISIBILITY
$$





USA.gov is the U.S. government's official web portal to all federal, state and local government web resources and services.